Flag for Brazil Past Weather in São José do Rio Preto, São Paulo, Brazil — Yesterday and Last 2 Weeks

Now
52 °F

Sunny.


Feels Like: 49 °F
Forecast: 56 / 86 °F
Wind: 7 mph from East

Location: Leite Lopes / Ribeir

Current Time: Jul 23, 2016 at 6:28:55 AM

Latest Report: Jul 23, 2016 at 6:00 AM


Visibility: 10 mi

Pressure: 30.09 "Hg (28.32 "Hg at 503m altitude)

Humidity: 94%

Dew Point: 50 °F

Location of São José do Rio PretoLocation

Past Weather in São José do Rio Preto — Graph

°F

São José do Rio Preto Temperature Yesterday

Maximum temperature yesterday: 79 °F (at 3:00 PM)
Minimum temperature yesterday: 52 °F (at 7:00 AM)
Average temperature yesterday: 65 °F

High & Low Weather Summary for the Past Weeks

 TemperatureHumidityPressure
High90 °F (Jul 11, 2:00 PM)94% (Jul 11, 2:00 AM)30.24 "Hg (Jul 11, 2:00 AM)
Low39 °F (Jul 18, 6:00 AM)12% (Jul 8, 4:00 PM)29.92 "Hg (Jul 15, 3:00 PM)
Average66 °F59%30.07 "Hg
* Reported Jul 8 5:00 AM — Jul 23 5:00 AM, São José do Rio Preto, Weather by CustomWeather, © 2016

Note: Actual official high and low records may vary slightly from our data, if they occured in-between our weather recording intervals... More about our weather records

Advertising

São José do Rio Preto Weather History for the Previous 24 Hours

Scroll right to see more
 ConditionsComfort  
Time TempWeatherWind HumidityBarometerVisibility
5:00 AM
Sat, Jul 23
54 °FClear.7 mph88%30.09 "Hg10 mi
4:00 AM55 °FClear.No wind82%30.09 "Hg10 mi
3:00 AM55 °FClear.No wind82%30.09 "Hg10 mi
2:00 AM55 °FClear.2 mph82%30.12 "Hg10 mi
1:00 AM59 °FClear.6 mph72%30.12 "Hg10 mi
12:00 AM61 °FClear.5 mph72%30.12 "Hg10 mi
11:00 PM
Fri, Jul 22
61 °FClear.7 mph72%30.15 "Hg10 mi
10:00 PM63 °FClear.5 mph68%30.12 "Hg10 mi
9:00 PM64 °FClear.5 mph64%30.09 "Hg10 mi
8:00 PM68 °FClear.3 mph53%30.09 "Hg10 mi
7:00 PM72 °FClear.5 mph47%30.07 "Hg10 mi
6:00 PM75 °FClear.No wind39%30.07 "Hg10 mi
5:00 PM79 °FClear.5 mph32%30.04 "Hg10 mi
4:00 PM79 °FSunny.5 mph30%30.04 "Hg10 mi
3:00 PM79 °FSunny.7 mph32%30.07 "Hg10 mi
2:00 PM77 °FSunny.6 mph34%30.09 "Hg10 mi
1:00 PM77 °FSunny.7 mph39%30.12 "Hg10 mi
12:00 PM75 °FSunny.7 mph41%30.15 "Hg10 mi
11:00 AM72 °FSunny.8 mph50%30.15 "Hg10 mi
10:00 AM64 °FSunny.9 mph64%30.18 "Hg10 mi
9:00 AM57 °FClear.8 mph82%30.18 "Hg5 mi
8:00 AM54 °FClear.7 mph88%30.15 "Hg4 mi
7:00 AM52 °FFog.5 mph88%30.12 "Hg2 mi
6:00 AM54 °FClear.8 mph88%30.12 "Hg5 mi
Weather by CustomWeather, © 2016

See weather overviewHow to use our weather pages